Weather in Castell贸n de la Plana

Spain     39掳59鈥06鈥砃   0掳02鈥42鈥矱
temp.,
掳C
wind,
m/s
gust,
m/s
humid.,
%
clouds,
%
prec.,
mm/h
press.,
hPa
HPBL,
m
23 october, sat
sat2323:00+18nne376094 0.9 1020714
02:00+17nnw22545 0.9 1021155
05:00+16nw225495 0.0 102090
08:00+16nw2250100 0.0 1020145
11:00+18ene114389 0.0 1022424
14:00+19ese214455 0.0 1021829
17:00+19se22545 0.0 1020668
20:00+18sw22699 0.0 1021665
24 october, sun
sun2423:00+17sw00750 0.0 1023287
02:00+17nw11760 0.0 1022110
05:00+16nw11720 0.0 102262
08:00+16nnw11670 0.0 102244
11:00+18n00600 0.0 1024419
14:00+20se21560 0.0 1023861
17:00+20se32620 0.0 1021641
20:00+19s11670 0.0 1022595
25 october, mon
mon2523:00+18w22730 0.0 1023270
02:00+17wnw11720 0.0 102255
05:00+16nw11710 0.0 102240
08:00+16nnw117012 0.0 102238
11:00+18ne006174 0.0 1023385
14:00+20se2257100 0.0 1022810
17:00+19se2261100 0.0 1020631
20:00+19s1165100 0.0 1021600
26 october, tue
tue2623:00+18w1169100 0.0 1022244
02:00+17nw1170100 0.0 102248
05:00+17n1169100 0.0 102142
08:00+16nnw1166100 0.0 102256
11:00+19nne12550 0.0 1023361
14:00+21e33460 0.0 10221119
17:00+20ese33450 0.0 1021853
20:00+19e11580 0.0 1022576
27 october, wed
wed2723:00+18wnw11600 0.0 102253
02:00+17nw11555 0.0 102243
05:00+16nw1153100 0.0 102144
08:00+16wnw2249100 0.0 102046
11:00+18wsw113943 0.0 1021216
14:00+20sse32470 0.0 1020706
17:00+20sse22514 0.0 1019501
20:00+19s115982 0.0 1019604